Regional Weather Roundup
Issued by NWS Sioux Falls, SD

Home | Current Version | Previous Version | Graphics & Text | Print | Product List | Glossary On
Versions: 1 2 3 4 5 6 7 8 9 10 11 12 13 14 15 16 17 18 19 20 21 22 23 24 25 26 27 28 29 30 31 32 33 34 35 36 37 38 39 40 41 42 43 44 45 46 47 48 49 50
000
ASUS43 KFSD 230802
RWRFSD

WEATHER ROUNDUP FOR SE SOUTH DAKOTA/SW MINNESOTA/NW IOWA
NATIONAL WEATHER SERVICE SIOUX FALLS SD
300 AM CDT SAT MAY 23 2015

NOTE: "FAIR" INDICATES FEW OR NO CLOUDS BELOW 12,000 FEET WITH NO
SIGNIFICANT WEATHER AND OR OBSTRUCTIONS TO VISIBILITY.


SDZ038>040-050-052>070-230900-
SOUTHEAST SOUTH DAKOTA

CITY           SKY/WX    TMP DP  RH WIND       PRES   REMARKS
BROOKINGS      CLOUDY    52  45  76 CALM      30.23R
CHAMBERLAIN    CLOUDY    50  47  87 SE9       30.15F
HURON          MOCLDY    49  46  90 SE5       30.19S
MADISON        CLOUDY    50  45  81 E3        30.21S
MITCHELL       CLOUDY    54  47  77 S7        30.20R
SIOUX FALLS    CLOUDY    58  43  57 SE8       30.19F
WINNER         CLOUDY    50  46  86 E6        30.13F
YANKTON        CLOUDY    54  46  76 E5        30.18S
$$

MNZ071-072-080-081-089-090-097-098-230900-
SOUTHWEST MINNESOTA

CITY           SKY/WX    TMP DP  RH WIND       PRES   REMARKS
FAIRMONT       CLOUDY    57  41  54 CALM      30.22S
JACKSON        MOCLDY    55  45  67 CALM      30.23S
LUVERNE        CLOUDY    59  45  58 S7        30.22S
MARSHALL       PTCLDY    54  43  66 CALM      30.21R
MONTEVIDEO     PTCLDY    54  41  62 CALM      30.22R
REDWOOD FALLS  PTCLDY    55  43  63 CALM      30.21S
TRACY          MOCLDY    55  45  70 CALM      30.22R
WINDOM         CLOUDY    54  45  71 CALM      30.22S
WORTHINGTON    CLOUDY    54  43  66 SW5       30.24R
$$

IAZ001>003-012>014-020>022-031-032-NEZ013-014-SDZ071-230900-
NORTHWEST IOWA

CITY           SKY/WX    TMP DP  RH WIND       PRES   REMARKS
DENISON        CLOUDY    54  50  87 SE7       30.19S
ESTHERVILLE    CLOUDY    53  46  77 CALM      30.22R
SIOUX CITY     CLOUDY    57  49  74 SE3       30.20R
SPENCER        LGT RAIN  58  47  66 VRB3      30.22R
$$

ABBREVIATIONS USED IN REMARKS
   TC - TEMPERATURE IN CELSIUS
  WCI - WIND CHILL INDEX
   HX - HEAT INDEX
  VSB - VISIBILITY




USA.gov is the U.S. government's official web portal to all federal, state and local government web resources and services.